UTC_DateTime,UTC_Time,PG,PG_mean,unit,site,lat,lon,alt
2015-03-10T00:00:00,00:00:00,68,64,V/m,CAS,-31.798,290.705,2550
2015-03-10T01:00:00,01:00:00,62,56,V/m,CAS,-31.798,290.705,2550
2015-03-10T02:00:00,02:00:00,54,48,V/m,CAS,-31.798,290.705,2550
2015-03-10T03:00:00,03:00:00,48,45,V/m,CAS,-31.798,290.705,2550
2015-03-10T04:00:00,04:00:00,45,43,V/m,CAS,-31.798,290.705,2550
2015-03-10T05:00:00,05:00:00,57,43,V/m,CAS,-31.798,290.705,2550
2015-03-10T06:00:00,06:00:00,52,44,V/m,CAS,-31.798,290.705,2550
2015-03-10T07:00:00,07:00:00,50,43,V/m,CAS,-31.798,290.705,2550
2015-03-10T08:00:00,08:00:00,38,44,V/m,CAS,-31.798,290.705,2550
2015-03-10T09:00:00,09:00:00,42,45,V/m,CAS,-31.798,290.705,2550
2015-03-10T10:00:00,10:00:00,41,45,V/m,CAS,-31.798,290.705,2550
2015-03-10T11:00:00,11:00:00,59,58,V/m,CAS,-31.798,290.705,2550
2015-03-10T12:00:00,12:00:00,84,81,V/m,CAS,-31.798,290.705,2550
2015-03-10T13:00:00,13:00:00,100,96,V/m,CAS,-31.798,290.705,2550
2015-03-10T14:00:00,14:00:00,93,98,V/m,CAS,-31.798,290.705,2550
2015-03-10T15:00:00,15:00:00,94,98,V/m,CAS,-31.798,290.705,2550
2015-03-10T16:00:00,16:00:00,101,96,V/m,CAS,-31.798,290.705,2550
2015-03-10T17:00:00,17:00:00,94,95,V/m,CAS,-31.798,290.705,2550
2015-03-10T18:00:00,18:00:00,100,94,V/m,CAS,-31.798,290.705,2550
2015-03-10T19:00:00,19:00:00,102,94,V/m,CAS,-31.798,290.705,2550
2015-03-10T20:00:00,20:00:00,86,90,V/m,CAS,-31.798,290.705,2550
2015-03-10T21:00:00,21:00:00,77,85,V/m,CAS,-31.798,290.705,2550
2015-03-10T22:00:00,22:00:00,74,82,V/m,CAS,-31.798,290.705,2550
2015-03-10T23:00:00,23:00:00,78,72,V/m,CAS,-31.798,290.705,2550
2015-03-11T00:00:00,00:00:00,62,64,V/m,CAS,-31.798,290.705,2550
2015-03-11T01:00:00,01:00:00,53,56,V/m,CAS,-31.798,290.705,2550
2015-03-11T02:00:00,02:00:00,40,48,V/m,CAS,-31.798,290.705,2550
2015-03-11T03:00:00,03:00:00,57,45,V/m,CAS,-31.798,290.705,2550
2015-03-11T04:00:00,04:00:00,57,43,V/m,CAS,-31.798,290.705,2550
2015-03-11T05:00:00,05:00:00,50,43,V/m,CAS,-31.798,290.705,2550
2015-03-11T06:00:00,06:00:00,55,44,V/m,CAS,-31.798,290.705,2550
2015-03-11T07:00:00,07:00:00,47,43,V/m,CAS,-31.798,290.705,2550
2015-03-11T08:00:00,08:00:00,43,44,V/m,CAS,-31.798,290.705,2550
2015-03-11T09:00:00,09:00:00,37,45,V/m,CAS,-31.798,290.705,2550
2015-03-11T10:00:00,10:00:00,41,45,V/m,CAS,-31.798,290.705,2550
2015-03-11T11:00:00,11:00:00,56,58,V/m,CAS,-31.798,290.705,2550
2015-03-11T12:00:00,12:00:00,85,81,V/m,CAS,-31.798,290.705,2550
2015-03-11T13:00:00,13:00:00,103,96,V/m,CAS,-31.798,290.705,2550
2015-03-11T14:00:00,14:00:00,104,98,V/m,CAS,-31.798,290.705,2550
2015-03-11T15:00:00,15:00:00,110,98,V/m,CAS,-31.798,290.705,2550
2015-03-11T16:00:00,16:00:00,104,96,V/m,CAS,-31.798,290.705,2550
2015-03-11T17:00:00,17:00:00,95,95,V/m,CAS,-31.798,290.705,2550
2015-03-11T18:00:00,18:00:00,97,94,V/m,CAS,-31.798,290.705,2550
2015-03-11T19:00:00,19:00:00,91,94,V/m,CAS,-31.798,290.705,2550
2015-03-11T20:00:00,20:00:00,91,90,V/m,CAS,-31.798,290.705,2550
2015-03-11T21:00:00,21:00:00,82,85,V/m,CAS,-31.798,290.705,2550
2015-03-11T22:00:00,22:00:00,96,82,V/m,CAS,-31.798,290.705,2550
2015-03-11T23:00:00,23:00:00,79,72,V/m,CAS,-31.798,290.705,2550
2015-03-12T00:00:00,00:00:00,61,64,V/m,CAS,-31.798,290.705,2550
2015-03-12T01:00:00,01:00:00,45,56,V/m,CAS,-31.798,290.705,2550
2015-03-12T02:00:00,02:00:00,31,48,V/m,CAS,-31.798,290.705,2550
2015-03-12T03:00:00,03:00:00,32,45,V/m,CAS,-31.798,290.705,2550
2015-03-12T04:00:00,04:00:00,34,43,V/m,CAS,-31.798,290.705,2550
2015-03-12T05:00:00,05:00:00,35,43,V/m,CAS,-31.798,290.705,2550
2015-03-12T06:00:00,06:00:00,32,44,V/m,CAS,-31.798,290.705,2550
2015-03-12T07:00:00,07:00:00,33,43,V/m,CAS,-31.798,290.705,2550
2015-03-12T08:00:00,08:00:00,39,44,V/m,CAS,-31.798,290.705,2550
2015-03-12T09:00:00,09:00:00,38,45,V/m,CAS,-31.798,290.705,2550
2015-03-12T10:00:00,10:00:00,40,45,V/m,CAS,-31.798,290.705,2550
2015-03-12T11:00:00,11:00:00,50,58,V/m,CAS,-31.798,290.705,2550
2015-03-12T12:00:00,12:00:00,61,81,V/m,CAS,-31.798,290.705,2550
2015-03-12T13:00:00,13:00:00,76,96,V/m,CAS,-31.798,290.705,2550
2015-03-12T14:00:00,14:00:00,76,98,V/m,CAS,-31.798,290.705,2550
2015-03-12T15:00:00,15:00:00,76,98,V/m,CAS,-31.798,290.705,2550
2015-03-12T16:00:00,16:00:00,72,96,V/m,CAS,-31.798,290.705,2550
2015-03-12T17:00:00,17:00:00,75,95,V/m,CAS,-31.798,290.705,2550
2015-03-12T18:00:00,18:00:00,72,94,V/m,CAS,-31.798,290.705,2550
2015-03-12T19:00:00,19:00:00,72,94,V/m,CAS,-31.798,290.705,2550
2015-03-12T20:00:00,20:00:00,70,90,V/m,CAS,-31.798,290.705,2550
2015-03-12T21:00:00,21:00:00,76,85,V/m,CAS,-31.798,290.705,2550
2015-03-12T22:00:00,22:00:00,81,82,V/m,CAS,-31.798,290.705,2550
2015-03-12T23:00:00,23:00:00,80,72,V/m,CAS,-31.798,290.705,2550
2015-03-13T00:00:00,00:00:00,83,64,V/m,CAS,-31.798,290.705,2550
2015-03-13T01:00:00,01:00:00,72,56,V/m,CAS,-31.798,290.705,2550
2015-03-13T02:00:00,02:00:00,53,48,V/m,CAS,-31.798,290.705,2550
2015-03-13T03:00:00,03:00:00,38,45,V/m,CAS,-31.798,290.705,2550
2015-03-13T04:00:00,04:00:00,36,43,V/m,CAS,-31.798,290.705,2550
2015-03-13T05:00:00,05:00:00,45,43,V/m,CAS,-31.798,290.705,2550
2015-03-13T06:00:00,06:00:00,34,44,V/m,CAS,-31.798,290.705,2550
2015-03-13T07:00:00,07:00:00,43,43,V/m,CAS,-31.798,290.705,2550
2015-03-13T08:00:00,08:00:00,56,44,V/m,CAS,-31.798,290.705,2550
2015-03-13T09:00:00,09:00:00,63,45,V/m,CAS,-31.798,290.705,2550
2015-03-13T10:00:00,10:00:00,71,45,V/m,CAS,-31.798,290.705,2550
2015-03-13T11:00:00,11:00:00,73,58,V/m,CAS,-31.798,290.705,2550
2015-03-13T12:00:00,12:00:00,70,81,V/m,CAS,-31.798,290.705,2550
2015-03-13T13:00:00,13:00:00,91,96,V/m,CAS,-31.798,290.705,2550
2015-03-13T14:00:00,14:00:00,108,98,V/m,CAS,-31.798,290.705,2550
2015-03-13T15:00:00,15:00:00,98,98,V/m,CAS,-31.798,290.705,2550
2015-03-13T16:00:00,16:00:00,87,96,V/m,CAS,-31.798,290.705,2550
2015-03-13T17:00:00,17:00:00,84,95,V/m,CAS,-31.798,290.705,2550
2015-03-13T18:00:00,18:00:00,73,94,V/m,CAS,-31.798,290.705,2550
2015-03-13T19:00:00,19:00:00,79,94,V/m,CAS,-31.798,290.705,2550
2015-03-13T20:00:00,20:00:00,73,90,V/m,CAS,-31.798,290.705,2550
2015-03-13T21:00:00,21:00:00,65,85,V/m,CAS,-31.798,290.705,2550
2015-03-13T22:00:00,22:00:00,75,82,V/m,CAS,-31.798,290.705,2550
2015-03-13T23:00:00,23:00:00,48,72,V/m,CAS,-31.798,290.705,2550
2015-03-14T00:00:00,00:00:00,38,64,V/m,CAS,-31.798,290.705,2550
2015-03-14T01:00:00,01:00:00,31,56,V/m,CAS,-31.798,290.705,2550
2015-03-14T02:00:00,02:00:00,34,48,V/m,CAS,-31.798,290.705,2550
2015-03-14T03:00:00,03:00:00,34,45,V/m,CAS,-31.798,290.705,2550
2015-03-14T04:00:00,04:00:00,39,43,V/m,CAS,-31.798,290.705,2550
2015-03-14T05:00:00,05:00:00,40,43,V/m,CAS,-31.798,290.705,2550
2015-03-14T06:00:00,06:00:00,44,44,V/m,CAS,-31.798,290.705,2550
2015-03-14T07:00:00,07:00:00,49,43,V/m,CAS,-31.798,290.705,2550
2015-03-14T08:00:00,08:00:00,42,44,V/m,CAS,-31.798,290.705,2550
2015-03-14T09:00:00,09:00:00,46,45,V/m,CAS,-31.798,290.705,2550
2015-03-14T10:00:00,10:00:00,46,45,V/m,CAS,-31.798,290.705,2550
2015-03-14T11:00:00,11:00:00,56,58,V/m,CAS,-31.798,290.705,2550
2015-03-14T12:00:00,12:00:00,80,81,V/m,CAS,-31.798,290.705,2550
2015-03-14T13:00:00,13:00:00,98,96,V/m,CAS,-31.798,290.705,2550
2015-03-14T14:00:00,14:00:00,85,98,V/m,CAS,-31.798,290.705,2550
2015-03-14T15:00:00,15:00:00,87,98,V/m,CAS,-31.798,290.705,2550
2015-03-14T16:00:00,16:00:00,82,96,V/m,CAS,-31.798,290.705,2550
2015-03-14T17:00:00,17:00:00,95,95,V/m,CAS,-31.798,290.705,2550
2015-03-14T18:00:00,18:00:00,106,94,V/m,CAS,-31.798,290.705,2550
2015-03-14T19:00:00,19:00:00,108,94,V/m,CAS,-31.798,290.705,2550
2015-03-14T20:00:00,20:00:00,112,90,V/m,CAS,-31.798,290.705,2550
2015-03-14T21:00:00,21:00:00,94,85,V/m,CAS,-31.798,290.705,2550
2015-03-14T22:00:00,22:00:00,95,82,V/m,CAS,-31.798,290.705,2550
2015-03-14T23:00:00,23:00:00,84,72,V/m,CAS,-31.798,290.705,2550
2015-03-15T00:00:00,00:00:00,75,64,V/m,CAS,-31.798,290.705,2550
2015-03-15T01:00:00,01:00:00,63,56,V/m,CAS,-31.798,290.705,2550
2015-03-15T02:00:00,02:00:00,60,48,V/m,CAS,-31.798,290.705,2550
2015-03-15T03:00:00,03:00:00,49,45,V/m,CAS,-31.798,290.705,2550
2015-03-15T04:00:00,04:00:00,53,43,V/m,CAS,-31.798,290.705,2550
2015-03-15T05:00:00,05:00:00,55,43,V/m,CAS,-31.798,290.705,2550
2015-03-15T06:00:00,06:00:00,62,44,V/m,CAS,-31.798,290.705,2550
2015-03-15T07:00:00,07:00:00,59,43,V/m,CAS,-31.798,290.705,2550
2015-03-15T08:00:00,08:00:00,62,44,V/m,CAS,-31.798,290.705,2550
2015-03-15T09:00:00,09:00:00,57,45,V/m,CAS,-31.798,290.705,2550
2015-03-15T10:00:00,10:00:00,51,45,V/m,CAS,-31.798,290.705,2550
2015-03-15T11:00:00,11:00:00,60,58,V/m,CAS,-31.798,290.705,2550
2015-03-15T12:00:00,12:00:00,86,81,V/m,CAS,-31.798,290.705,2550
2015-03-15T13:00:00,13:00:00,92,96,V/m,CAS,-31.798,290.705,2550
2015-03-15T14:00:00,14:00:00,95,98,V/m,CAS,-31.798,290.705,2550
2015-03-15T15:00:00,15:00:00,96,98,V/m,CAS,-31.798,290.705,2550
2015-03-15T16:00:00,16:00:00,86,96,V/m,CAS,-31.798,290.705,2550
2015-03-15T17:00:00,17:00:00,71,95,V/m,CAS,-31.798,290.705,2550
2015-03-15T18:00:00,18:00:00,77,94,V/m,CAS,-31.798,290.705,2550
2015-03-15T19:00:00,19:00:00,78,94,V/m,CAS,-31.798,290.705,2550
2015-03-15T20:00:00,20:00:00,71,90,V/m,CAS,-31.798,290.705,2550
2015-03-15T21:00:00,21:00:00,60,85,V/m,CAS,-31.798,290.705,2550
2015-03-15T22:00:00,22:00:00,49,82,V/m,CAS,-31.798,290.705,2550
2015-03-15T23:00:00,23:00:00,30,72,V/m,CAS,-31.798,290.705,2550
2015-03-16T00:00:00,00:00:00,22,64,V/m,CAS,-31.798,290.705,2550
2015-03-16T01:00:00,01:00:00,33,56,V/m,CAS,-31.798,290.705,2550
2015-03-16T02:00:00,02:00:00,29,48,V/m,CAS,-31.798,290.705,2550
2015-03-16T03:00:00,03:00:00,21,45,V/m,CAS,-31.798,290.705,2550
2015-03-16T04:00:00,04:00:00,19,43,V/m,CAS,-31.798,290.705,2550
2015-03-16T05:00:00,05:00:00,22,43,V/m,CAS,-31.798,290.705,2550
2015-03-16T06:00:00,06:00:00,25,44,V/m,CAS,-31.798,290.705,2550
2015-03-16T07:00:00,07:00:00,28,43,V/m,CAS,-31.798,290.705,2550
2015-03-16T08:00:00,08:00:00,32,44,V/m,CAS,-31.798,290.705,2550
2015-03-16T09:00:00,09:00:00,27,45,V/m,CAS,-31.798,290.705,2550
2015-03-16T10:00:00,10:00:00,27,45,V/m,CAS,-31.798,290.705,2550
2015-03-16T11:00:00,11:00:00,42,58,V/m,CAS,-31.798,290.705,2550
2015-03-16T12:00:00,12:00:00,71,81,V/m,CAS,-31.798,290.705,2550
2015-03-16T13:00:00,13:00:00,87,96,V/m,CAS,-31.798,290.705,2550
2015-03-16T14:00:00,14:00:00,87,98,V/m,CAS,-31.798,290.705,2550
2015-03-16T15:00:00,15:00:00,79,98,V/m,CAS,-31.798,290.705,2550
2015-03-16T16:00:00,16:00:00,77,96,V/m,CAS,-31.798,290.705,2550
2015-03-16T17:00:00,17:00:00,77,95,V/m,CAS,-31.798,290.705,2550
2015-03-16T18:00:00,18:00:00,80,94,V/m,CAS,-31.798,290.705,2550
2015-03-16T19:00:00,19:00:00,68,94,V/m,CAS,-31.798,290.705,2550
2015-03-16T20:00:00,20:00:00,71,90,V/m,CAS,-31.798,290.705,2550
2015-03-16T21:00:00,21:00:00,65,85,V/m,CAS,-31.798,290.705,2550
2015-03-16T22:00:00,22:00:00,70,82,V/m,CAS,-31.798,290.705,2550
2015-03-16T23:00:00,23:00:00,84,72,V/m,CAS,-31.798,290.705,2550
2015-03-17T00:00:00,00:00:00,61,64,V/m,CAS,-31.798,290.705,2550
2015-03-17T01:00:00,01:00:00,47,56,V/m,CAS,-31.798,290.705,2550
2015-03-17T02:00:00,02:00:00,49,48,V/m,CAS,-31.798,290.705,2550
2015-03-17T03:00:00,03:00:00,27,45,V/m,CAS,-31.798,290.705,2550
2015-03-17T04:00:00,04:00:00,32,43,V/m,CAS,-31.798,290.705,2550
2015-03-17T05:00:00,05:00:00,32,43,V/m,CAS,-31.798,290.705,2550
2015-03-17T06:00:00,06:00:00,39,44,V/m,CAS,-31.798,290.705,2550
2015-03-17T07:00:00,07:00:00,29,43,V/m,CAS,-31.798,290.705,2550
2015-03-17T08:00:00,08:00:00,30,44,V/m,CAS,-31.798,290.705,2550
2015-03-17T09:00:00,09:00:00,29,45,V/m,CAS,-31.798,290.705,2550
2015-03-17T10:00:00,10:00:00,28,45,V/m,CAS,-31.798,290.705,2550
2015-03-17T11:00:00,11:00:00,40,58,V/m,CAS,-31.798,290.705,2550
2015-03-17T12:00:00,12:00:00,64,81,V/m,CAS,-31.798,290.705,2550
2015-03-17T13:00:00,13:00:00,91,96,V/m,CAS,-31.798,290.705,2550
2015-03-17T14:00:00,14:00:00,94,98,V/m,CAS,-31.798,290.705,2550
2015-03-17T15:00:00,15:00:00,99,98,V/m,CAS,-31.798,290.705,2550
2015-03-17T16:00:00,16:00:00,94,96,V/m,CAS,-31.798,290.705,2550
2015-03-17T17:00:00,17:00:00,99,95,V/m,CAS,-31.798,290.705,2550
2015-03-17T18:00:00,18:00:00,102,94,V/m,CAS,-31.798,290.705,2550
2015-03-17T19:00:00,19:00:00,100,94,V/m,CAS,-31.798,290.705,2550
2015-03-17T20:00:00,20:00:00,,,,,,,
2015-03-17T21:00:00,21:00:00,,,,,,,
2015-03-17T22:00:00,22:00:00,113,82,V/m,CAS,-31.798,290.705,2550
2015-03-17T23:00:00,23:00:00,100,72,V/m,CAS,-31.798,290.705,2550
2015-03-18T00:00:00,00:00:00,91,64,V/m,CAS,-31.798,290.705,2550
2015-03-18T01:00:00,01:00:00,84,56,V/m,CAS,-31.798,290.705,2550
2015-03-18T02:00:00,02:00:00,61,48,V/m,CAS,-31.798,290.705,2550
2015-03-18T03:00:00,03:00:00,52,45,V/m,CAS,-31.798,290.705,2550
2015-03-18T04:00:00,04:00:00,60,43,V/m,CAS,-31.798,290.705,2550
2015-03-18T05:00:00,05:00:00,59,43,V/m,CAS,-31.798,290.705,2550
2015-03-18T06:00:00,06:00:00,47,44,V/m,CAS,-31.798,290.705,2550
2015-03-18T07:00:00,07:00:00,41,43,V/m,CAS,-31.798,290.705,2550
2015-03-18T08:00:00,08:00:00,39,44,V/m,CAS,-31.798,290.705,2550
2015-03-18T09:00:00,09:00:00,40,45,V/m,CAS,-31.798,290.705,2550
2015-03-18T10:00:00,10:00:00,41,45,V/m,CAS,-31.798,290.705,2550
2015-03-18T11:00:00,11:00:00,55,58,V/m,CAS,-31.798,290.705,2550
2015-03-18T12:00:00,12:00:00,86,81,V/m,CAS,-31.798,290.705,2550
2015-03-18T13:00:00,13:00:00,95,96,V/m,CAS,-31.798,290.705,2550
2015-03-18T14:00:00,14:00:00,112,98,V/m,CAS,-31.798,290.705,2550
2015-03-18T15:00:00,15:00:00,105,98,V/m,CAS,-31.798,290.705,2550
2015-03-18T16:00:00,16:00:00,,,,,,,
2015-03-18T17:00:00,17:00:00,,,,,,,
2015-03-18T18:00:00,18:00:00,,,,,,,
2015-03-18T19:00:00,19:00:00,,,,,,,
2015-03-18T20:00:00,20:00:00,,,,,,,
2015-03-18T21:00:00,21:00:00,,,,,,,
2015-03-18T22:00:00,22:00:00,,,,,,,
2015-03-18T23:00:00,23:00:00,,,,,,,
2015-03-19T00:00:00,00:00:00,,,,,,,
2015-03-19T01:00:00,01:00:00,,,,,,,
2015-03-19T02:00:00,02:00:00,,,,,,,
2015-03-19T03:00:00,03:00:00,,,,,,,
2015-03-19T04:00:00,04:00:00,,,,,,,
2015-03-19T05:00:00,05:00:00,,,,,,,
2015-03-19T06:00:00,06:00:00,63,44,V/m,CAS,-31.798,290.705,2550
2015-03-19T07:00:00,07:00:00,65,43,V/m,CAS,-31.798,290.705,2550
2015-03-19T08:00:00,08:00:00,77,44,V/m,CAS,-31.798,290.705,2550
2015-03-19T09:00:00,09:00:00,68,45,V/m,CAS,-31.798,290.705,2550
2015-03-19T10:00:00,10:00:00,57,45,V/m,CAS,-31.798,290.705,2550
2015-03-19T11:00:00,11:00:00,59,58,V/m,CAS,-31.798,290.705,2550
2015-03-19T12:00:00,12:00:00,83,81,V/m,CAS,-31.798,290.705,2550
2015-03-19T13:00:00,13:00:00,92,96,V/m,CAS,-31.798,290.705,2550
2015-03-19T14:00:00,14:00:00,98,98,V/m,CAS,-31.798,290.705,2550
2015-03-19T15:00:00,15:00:00,108,98,V/m,CAS,-31.798,290.705,2550
2015-03-19T16:00:00,16:00:00,91,96,V/m,CAS,-31.798,290.705,2550
2015-03-19T17:00:00,17:00:00,88,95,V/m,CAS,-31.798,290.705,2550
2015-03-19T18:00:00,18:00:00,90,94,V/m,CAS,-31.798,290.705,2550
2015-03-19T19:00:00,19:00:00,83,94,V/m,CAS,-31.798,290.705,2550
2015-03-19T20:00:00,20:00:00,80,90,V/m,CAS,-31.798,290.705,2550
2015-03-19T21:00:00,21:00:00,83,85,V/m,CAS,-31.798,290.705,2550
2015-03-19T22:00:00,22:00:00,77,82,V/m,CAS,-31.798,290.705,2550
2015-03-19T23:00:00,23:00:00,66,72,V/m,CAS,-31.798,290.705,2550
2015-03-20T00:00:00,00:00:00,52,64,V/m,CAS,-31.798,290.705,2550
2015-03-20T01:00:00,01:00:00,57,56,V/m,CAS,-31.798,290.705,2550
2015-03-20T02:00:00,02:00:00,41,48,V/m,CAS,-31.798,290.705,2550
2015-03-20T03:00:00,03:00:00,28,45,V/m,CAS,-31.798,290.705,2550
2015-03-20T04:00:00,04:00:00,35,43,V/m,CAS,-31.798,290.705,2550
2015-03-20T05:00:00,05:00:00,31,43,V/m,CAS,-31.798,290.705,2550
2015-03-20T06:00:00,06:00:00,33,44,V/m,CAS,-31.798,290.705,2550
2015-03-20T07:00:00,07:00:00,24,43,V/m,CAS,-31.798,290.705,2550
2015-03-20T08:00:00,08:00:00,38,44,V/m,CAS,-31.798,290.705,2550
2015-03-20T09:00:00,09:00:00,33,45,V/m,CAS,-31.798,290.705,2550
2015-03-20T10:00:00,10:00:00,27,45,V/m,CAS,-31.798,290.705,2550
2015-03-20T11:00:00,11:00:00,37,58,V/m,CAS,-31.798,290.705,2550
2015-03-20T12:00:00,12:00:00,68,81,V/m,CAS,-31.798,290.705,2550
2015-03-20T13:00:00,13:00:00,83,96,V/m,CAS,-31.798,290.705,2550
2015-03-20T14:00:00,14:00:00,94,98,V/m,CAS,-31.798,290.705,2550
2015-03-20T15:00:00,15:00:00,95,98,V/m,CAS,-31.798,290.705,2550
2015-03-20T16:00:00,16:00:00,94,96,V/m,CAS,-31.798,290.705,2550
2015-03-20T17:00:00,17:00:00,91,95,V/m,CAS,-31.798,290.705,2550
2015-03-20T18:00:00,18:00:00,86,94,V/m,CAS,-31.798,290.705,2550
2015-03-20T19:00:00,19:00:00,89,94,V/m,CAS,-31.798,290.705,2550
2015-03-20T20:00:00,20:00:00,83,90,V/m,CAS,-31.798,290.705,2550
2015-03-20T21:00:00,21:00:00,113,85,V/m,CAS,-31.798,290.705,2550
2015-03-20T22:00:00,22:00:00,108,82,V/m,CAS,-31.798,290.705,2550
2015-03-20T23:00:00,23:00:00,101,72,V/m,CAS,-31.798,290.705,2550
2015-03-21T00:00:00,00:00:00,88,64,V/m,CAS,-31.798,290.705,2550
2015-03-21T01:00:00,01:00:00,79,56,V/m,CAS,-31.798,290.705,2550
2015-03-21T02:00:00,02:00:00,69,48,V/m,CAS,-31.798,290.705,2550
2015-03-21T03:00:00,03:00:00,67,45,V/m,CAS,-31.798,290.705,2550
2015-03-21T04:00:00,04:00:00,63,43,V/m,CAS,-31.798,290.705,2550
2015-03-21T05:00:00,05:00:00,52,43,V/m,CAS,-31.798,290.705,2550
2015-03-21T06:00:00,06:00:00,57,44,V/m,CAS,-31.798,290.705,2550
2015-03-21T07:00:00,07:00:00,60,43,V/m,CAS,-31.798,290.705,2550
2015-03-21T08:00:00,08:00:00,68,44,V/m,CAS,-31.798,290.705,2550
2015-03-21T09:00:00,09:00:00,66,45,V/m,CAS,-31.798,290.705,2550
2015-03-21T10:00:00,10:00:00,57,45,V/m,CAS,-31.798,290.705,2550
2015-03-21T11:00:00,11:00:00,62,58,V/m,CAS,-31.798,290.705,2550
2015-03-21T12:00:00,12:00:00,88,81,V/m,CAS,-31.798,290.705,2550
2015-03-21T13:00:00,13:00:00,95,96,V/m,CAS,-31.798,290.705,2550
2015-03-21T14:00:00,14:00:00,111,98,V/m,CAS,-31.798,290.705,2550
2015-03-21T15:00:00,15:00:00,114,98,V/m,CAS,-31.798,290.705,2550
2015-03-21T16:00:00,16:00:00,110,96,V/m,CAS,-31.798,290.705,2550
2015-03-21T17:00:00,17:00:00,110,95,V/m,CAS,-31.798,290.705,2550
2015-03-21T18:00:00,18:00:00,102,94,V/m,CAS,-31.798,290.705,2550
2015-03-21T19:00:00,19:00:00,115,94,V/m,CAS,-31.798,290.705,2550
2015-03-21T20:00:00,20:00:00,113,90,V/m,CAS,-31.798,290.705,2550
2015-03-21T21:00:00,21:00:00,96,85,V/m,CAS,-31.798,290.705,2550
2015-03-21T22:00:00,22:00:00,90,82,V/m,CAS,-31.798,290.705,2550
2015-03-21T23:00:00,23:00:00,82,72,V/m,CAS,-31.798,290.705,2550
2015-03-22T00:00:00,00:00:00,79,64,V/m,CAS,-31.798,290.705,2550
2015-03-22T01:00:00,01:00:00,73,56,V/m,CAS,-31.798,290.705,2550
2015-03-22T02:00:00,02:00:00,73,48,V/m,CAS,-31.798,290.705,2550
2015-03-22T03:00:00,03:00:00,72,45,V/m,CAS,-31.798,290.705,2550
2015-03-22T04:00:00,04:00:00,39,43,V/m,CAS,-31.798,290.705,2550
2015-03-22T05:00:00,05:00:00,40,43,V/m,CAS,-31.798,290.705,2550
2015-03-22T06:00:00,06:00:00,46,44,V/m,CAS,-31.798,290.705,2550
2015-03-22T07:00:00,07:00:00,46,43,V/m,CAS,-31.798,290.705,2550
2015-03-22T08:00:00,08:00:00,48,44,V/m,CAS,-31.798,290.705,2550
2015-03-22T09:00:00,09:00:00,48,45,V/m,CAS,-31.798,290.705,2550
2015-03-22T10:00:00,10:00:00,50,45,V/m,CAS,-31.798,290.705,2550
2015-03-22T11:00:00,11:00:00,61,58,V/m,CAS,-31.798,290.705,2550
2015-03-22T12:00:00,12:00:00,108,81,V/m,CAS,-31.798,290.705,2550
2015-03-22T13:00:00,13:00:00,116,96,V/m,CAS,-31.798,290.705,2550
2015-03-22T14:00:00,14:00:00,113,98,V/m,CAS,-31.798,290.705,2550
2015-03-22T15:00:00,15:00:00,110,98,V/m,CAS,-31.798,290.705,2550
2015-03-22T16:00:00,16:00:00,107,96,V/m,CAS,-31.798,290.705,2550
2015-03-22T17:00:00,17:00:00,95,95,V/m,CAS,-31.798,290.705,2550
2015-03-22T18:00:00,18:00:00,92,94,V/m,CAS,-31.798,290.705,2550
2015-03-22T19:00:00,19:00:00,89,94,V/m,CAS,-31.798,290.705,2550
2015-03-22T20:00:00,20:00:00,87,90,V/m,CAS,-31.798,290.705,2550
2015-03-22T21:00:00,21:00:00,85,85,V/m,CAS,-31.798,290.705,2550
2015-03-22T22:00:00,22:00:00,93,82,V/m,CAS,-31.798,290.705,2550
2015-03-22T23:00:00,23:00:00,80,72,V/m,CAS,-31.798,290.705,2550
2015-03-23T00:00:00,00:00:00,68,64,V/m,CAS,-31.798,290.705,2550
2015-03-23T01:00:00,01:00:00,45,56,V/m,CAS,-31.798,290.705,2550
2015-03-23T02:00:00,02:00:00,32,48,V/m,CAS,-31.798,290.705,2550
2015-03-23T03:00:00,03:00:00,45,45,V/m,CAS,-31.798,290.705,2550
2015-03-23T04:00:00,04:00:00,37,43,V/m,CAS,-31.798,290.705,2550
2015-03-23T05:00:00,05:00:00,43,43,V/m,CAS,-31.798,290.705,2550
2015-03-23T06:00:00,06:00:00,42,44,V/m,CAS,-31.798,290.705,2550
2015-03-23T07:00:00,07:00:00,57,43,V/m,CAS,-31.798,290.705,2550
2015-03-23T08:00:00,08:00:00,54,44,V/m,CAS,-31.798,290.705,2550
2015-03-23T09:00:00,09:00:00,43,45,V/m,CAS,-31.798,290.705,2550
2015-03-23T10:00:00,10:00:00,45,45,V/m,CAS,-31.798,290.705,2550
2015-03-23T11:00:00,11:00:00,58,58,V/m,CAS,-31.798,290.705,2550
2015-03-23T12:00:00,12:00:00,78,81,V/m,CAS,-31.798,290.705,2550
2015-03-23T13:00:00,13:00:00,88,96,V/m,CAS,-31.798,290.705,2550
2015-03-23T14:00:00,14:00:00,95,98,V/m,CAS,-31.798,290.705,2550
2015-03-23T15:00:00,15:00:00,90,98,V/m,CAS,-31.798,290.705,2550
2015-03-23T16:00:00,16:00:00,101,96,V/m,CAS,-31.798,290.705,2550
2015-03-23T17:00:00,17:00:00,94,95,V/m,CAS,-31.798,290.705,2550
2015-03-23T18:00:00,18:00:00,86,94,V/m,CAS,-31.798,290.705,2550
2015-03-23T19:00:00,19:00:00,91,94,V/m,CAS,-31.798,290.705,2550
2015-03-23T20:00:00,20:00:00,93,90,V/m,CAS,-31.798,290.705,2550
2015-03-23T21:00:00,21:00:00,81,85,V/m,CAS,-31.798,290.705,2550
2015-03-23T22:00:00,22:00:00,89,82,V/m,CAS,-31.798,290.705,2550
2015-03-23T23:00:00,23:00:00,101,72,V/m,CAS,-31.798,290.705,2550
2015-03-24T00:00:00,00:00:00,81,64,V/m,CAS,-31.798,290.705,2550
2015-03-24T01:00:00,01:00:00,79,56,V/m,CAS,-31.798,290.705,2550
2015-03-24T02:00:00,02:00:00,67,48,V/m,CAS,-31.798,290.705,2550
2015-03-24T03:00:00,03:00:00,,,,,,,
2015-03-24T04:00:00,04:00:00,,,,,,,
2015-03-24T05:00:00,05:00:00,,,,,,,
2015-03-24T06:00:00,06:00:00,,,,,,,
2015-03-24T07:00:00,07:00:00,,,,,,,
2015-03-24T08:00:00,08:00:00,,,,,,,
2015-03-24T09:00:00,09:00:00,,,,,,,
2015-03-24T10:00:00,10:00:00,,,,,,,
2015-03-24T11:00:00,11:00:00,,,,,,,
2015-03-24T12:00:00,12:00:00,,,,,,,
2015-03-24T13:00:00,13:00:00,,,,,,,
2015-03-24T14:00:00,14:00:00,,,,,,,
2015-03-24T15:00:00,15:00:00,,,,,,,
2015-03-24T16:00:00,16:00:00,,,,,,,
2015-03-24T17:00:00,17:00:00,,,,,,,
2015-03-24T18:00:00,18:00:00,,,,,,,
2015-03-24T19:00:00,19:00:00,95,94,V/m,CAS,-31.798,290.705,2550
2015-03-24T20:00:00,20:00:00,93,90,V/m,CAS,-31.798,290.705,2550
2015-03-24T21:00:00,21:00:00,86,85,V/m,CAS,-31.798,290.705,2550
2015-03-24T22:00:00,22:00:00,81,82,V/m,CAS,-31.798,290.705,2550
2015-03-24T23:00:00,23:00:00,70,72,V/m,CAS,-31.798,290.705,2550
